| time (UTC) | temp F | wind direction | speed MPH | gust MPH | rain 1hr in | rain 24hr in | rain mn in | humidity % | barometer mb |
| 20260505121103 | 53 | 290 | 1.0 | 7.0 | 0.00 | 0.00 | 0.00 | 88 | 1015.9 |
| 20260505115959 | 53 | 239 | 1.0 | 8.0 | 0.00 | 0.00 | 0.00 | 88 | 1015.9 |
| 20260505114958 | 53 | 299 | 1.0 | 8.0 | 0.00 | 0.00 | 0.00 | 88 | 1015.9 |
| 20260505113956 | 53 | 274 | 1.0 | 5.0 | 0.00 | 0.00 | 0.00 | 88 | 1015.9 |
| 20260505112955 | 54 | 249 | 2.0 | 6.0 | 0.00 | 0.00 | 0.00 | 88 | 1015.9 |
| 20260505111954 | 54 | 304 | 2.0 | 6.0 | 0.00 | 0.00 | 0.00 | 87 | 1015.9 |
| 20260505110953 | 54 | 287 | 2.0 | 6.0 | 0.00 | 0.00 | 0.00 | 87 | 1015.9 |
| 20260505101948 | 56 | 268 | 2.0 | 6.0 | 0.00 | 0.00 | 0.00 | 85 | 1015.6 |
| 20260505100947 | 56 | 278 | 1.0 | 7.0 | 0.00 | 0.00 | 0.00 | 85 | 1015.6 |
| 20260505095946 | 56 | 294 | 2.0 | 7.0 | 0.00 | 0.00 | 0.00 | 85 | 1015.2 |
| 20260505094945 | 56 | 271 | 2.0 | 6.0 | 0.00 | 0.00 | 0.00 | 85 | 1015.2 |
| 20260505093913 | 57 | 253 | 2.0 | 6.0 | 0.00 | 0.00 | 0.00 | 84 | 1015.2 |
| 20260505092912 | 57 | 253 | 2.0 | 6.0 | 0.00 | 0.00 | 0.00 | 83 | 1015.2 |
| 20260505091911 | 57 | 283 | 3.0 | 6.0 | 0.00 | 0.00 | 0.00 | 83 | 1014.9 |
| 20260505090910 | 58 | 284 | 4.0 | 5.0 | 0.00 | 0.00 | 0.00 | 82 | 1014.9 |
| 20260505085909 | 58 | 229 | 2.0 | 4.0 | 0.00 | 0.00 | 0.00 | 81 | 1014.9 |
| 20260505084908 | 59 | 232 | 2.0 | 4.0 | 0.00 | 0.00 | 0.00 | 81 | 1014.9 |
| 20260505083908 | 59 | 209 | 1.0 | 4.0 | 0.00 | 0.00 | 0.00 | 81 | 1014.9 |
| 20260505082907 | 59 | 209 | 1.0 | 5.0 | 0.00 | 0.00 | 0.00 | 81 | 1014.9 |
| 20260505081905 | 59 | 339 | 1.0 | 5.0 | 0.00 | 0.00 | 0.00 | 80 | 1014.9 |
| 20260505080904 | 60 | 291 | 0.0 | 0.0 | 0.00 | 0.00 | 0.00 | 80 | 1014.9 |
| 20260505075903 | 60 | 291 | 0.0 | 0.0 | 0.00 | 0.00 | 0.00 | 79 | 1014.9 |
| 20260505074831 | 60 | 291 | 0.0 | 0.0 | 0.00 | 0.00 | 0.00 | 79 | 1014.9 |
| 20260505073759 | 60 | 291 | 0.0 | 0.0 | 0.00 | 0.00 | 0.00 | 78 | 1014.6 |
| 20260505072758 | 60 | 291 | 0.0 | 0.0 | 0.00 | 0.00 | 0.00 | 78 | 1014.6 |
| 20260505071757 | 60 | 291 | 0.0 | 1.0 | 0.00 | 0.00 | 0.00 | 77 | 1014.6 |
| 20260505070756 | 60 | 291 | 1.0 | 1.0 | 0.00 | 0.00 | 0.00 | 76 | 1014.6 |
| 20260505065756 | 60 | 291 | 0.0 | 0.0 | 0.00 | 0.00 | 0.00 | 76 | 1014.6 |
| 20260505064755 | 60 | 291 | 0.0 | 2.0 | 0.00 | 0.00 | 0.00 | 76 | 1014.2 |
| 20260505063754 | 60 | 291 | 0.0 | 2.0 | 0.00 | 0.00 | 0.00 | 76 | 1014.2 |
| 20260505062753 | 60 | 291 | 0.0 | 0.0 | 0.00 | 0.00 | 0.00 | 76 | 1014.6 |
| 20260505061752 | 60 | 291 | 0.0 | 1.0 | 0.00 | 0.00 | 0.00 | 76 | 1014.2 |
| 20260505060751 | 60 | 291 | 1.0 | 1.0 | 0.00 | 0.00 | 0.00 | 77 | 1014.2 |
| 20260505055750 | 60 | 291 | 0.0 | 2.0 | 0.00 | 0.00 | 0.00 | 77 | 1014.2 |
| 20260505054748 | 60 | 291 | 1.0 | 2.0 | 0.00 | 0.00 | 0.00 | 77 | 1014.2 |
| 20260505053716 | 60 | 291 | 0.0 | 1.0 | 0.00 | 0.00 | 0.00 | 77 | 1014.2 |
| 20260505052715 | 60 | 291 | 1.0 | 1.0 | 0.00 | 0.00 | 0.00 | 77 | 1014.2 |
| 20260505051715 | 60 | 291 | 1.0 | 1.0 | 0.00 | 0.00 | 0.00 | 77 | 1014.2 |
| 20260505050713 | 60 | 291 | 1.0 | 2.0 | 0.00 | 0.00 | 0.00 | 76 | 1014.2 |
| 20260505041636 | 63 | 292 | 1.0 | 5.0 | 0.00 | 0.00 | 0.00 | 71 | 1013.5 |
| 20260505040635 | 63 | 291 | 2.0 | 5.0 | 0.00 | 0.00 | 0.00 | 70 | 1013.5 |
| 20260505035634 | 63 | 297 | 1.0 | 6.0 | 0.00 | 0.00 | 0.00 | 69 | 1013.2 |
| 20260505034633 | 64 | 287 | 2.0 | 6.0 | 0.00 | 0.00 | 0.00 | 68 | 1013.2 |
| 20260505033632 | 64 | 290 | 2.0 | 9.0 | 0.00 | 0.00 | 0.00 | 67 | 1013.2 |
| 20260505032630 | 65 | 310 | 3.0 | 9.0 | 0.00 | 0.00 | 0.00 | 66 | 1013.2 |
| 20260505031630 | 66 | 280 | 3.0 | 7.0 | 0.00 | 0.00 | 0.00 | 64 | 1012.9 |
| 20260505030629 | 66 | 327 | 1.0 | 5.0 | 0.00 | 0.00 | 0.00 | 61 | 1012.9 |
| 20260505025628 | 67 | 318 | 1.0 | 6.0 | 0.00 | 0.00 | 0.00 | 61 | 1012.5 |
| 20260505024627 | 67 | 290 | 2.0 | 6.0 | 0.00 | 0.00 | 0.00 | 59 | 1012.5 |
| 20260505023555 | 68 | 263 | 2.0 | 5.0 | 0.00 | 0.00 | 0.00 | 58 | 1012.5 |
| 20260505022553 | 69 | 296 | 2.0 | 8.0 | 0.00 | 0.00 | 0.00 | 56 | 1012.5 |
| 20260505021552 | 70 | 287 | 3.0 | 8.0 | 0.00 | 0.00 | 0.00 | 54 | 1012.5 |
| 20260505020551 | 71 | 292 | 3.0 | 7.0 | 0.00 | 0.00 | 0.00 | 52 | 1012.5 |
| 20260505015550 | 71 | 286 | 4.0 | 8.0 | 0.00 | 0.00 | 0.00 | 51 | 1012.5 |
| 20260505014550 | 71 | 255 | 5.0 | 9.0 | 0.00 | 0.00 | 0.00 | 50 | 1012.5 |
| 20260505013548 | 71 | 284 | 4.0 | 9.0 | 0.00 | 0.00 | 0.00 | 50 | 1012.5 |
| 20260505012547 | 72 | 284 | 3.0 | 9.0 | 0.00 | 0.00 | 0.00 | 47 | 1012.5 |
| 20260505011546 | 72 | 290 | 4.0 | 9.0 | 0.00 | 0.00 | 0.00 | 46 | 1012.5 |
| 20260505010545 | 73 | 284 | 3.0 | 10.0 | 0.00 | 0.00 | 0.00 | 46 | 1012.5 |
| 20260505005544 | 73 | 283 | 5.0 | 12.0 | 0.00 | 0.00 | 0.00 | 46 | 1012.5 |
| 20260505004543 | 73 | 278 | 6.0 | 12.0 | 0.00 | 0.00 | 0.00 | 46 | 1012.2 |
| 20260505003542 | 74 | 271 | 3.0 | 11.0 | 0.00 | 0.00 | 0.00 | 44 | 1012.2 |
| 20260505002541 | 74 | 279 | 5.0 | 11.0 | 0.00 | 0.00 | 0.00 | 43 | 1012.2 |
| 20260505001540 | 74 | 263 | 4.0 | 15.0 | 0.00 | 0.00 | 0.00 | 45 | 1012.2 |
| 20260505000539 | 74 | 275 | 3.0 | 15.0 | 0.00 | 0.00 | 0.00 | 46 | 1012.2 |
| 20260504235537 | 74 | 286 | 6.0 | 11.0 | 0.00 | 0.00 | 0.00 | 44 | 1012.2 |
| 20260504234536 | 74 | 290 | 4.0 | 12.0 | 0.00 | 0.00 | 0.00 | 44 | 1012.2 |
| 20260504233504 | 75 | 279 | 6.0 | 11.0 | 0.00 | 0.00 | 0.00 | 42 | 1012.2 |
| 20260504232504 | 75 | 278 | 3.0 | 11.0 | 0.00 | 0.00 | 0.00 | 45 | 1012.2 |
| 20260504231503 | 75 | 272 | 2.0 | 13.0 | 0.00 | 0.00 | 0.00 | 43 | 1012.2 |
| 20260504230502 | 75 | 281 | 5.0 | 13.0 | 0.00 | 0.00 | 0.00 | 44 | 1012.2 |
| 20260504225429 | 75 | 283 | 4.0 | 12.0 | 0.00 | 0.00 | 0.00 | 44 | 1012.2 |
| 20260504224428 | 75 | 289 | 4.0 | 13.0 | 0.00 | 0.00 | 0.00 | 46 | 1012.5 |
| 20260504223428 | 75 | 280 | 5.0 | 13.0 | 0.00 | 0.00 | 0.00 | 46 | 1012.5 |
| 20260504222427 | 75 | 269 | 7.0 | 11.0 | 0.00 | 0.00 | 0.00 | 45 | 1012.5 |
| 20260504221426 | 75 | 286 | 5.0 | 12.0 | 0.00 | 0.00 | 0.00 | 46 | 1012.5 |
| 20260504220425 | 75 | 290 | 5.0 | 12.0 | 0.00 | 0.00 | 0.00 | 43 | 1012.5 |
| 20260504215423 | 74 | 276 | 4.0 | 12.0 | 0.00 | 0.00 | 0.00 | 45 | 1012.5 |
| 20260504214352 | 74 | 287 | 5.0 | 13.0 | 0.00 | 0.00 | 0.00 | 45 | 1012.5 |
| 20260504213351 | 74 | 288 | 7.0 | 13.0 | 0.00 | 0.00 | 0.00 | 46 | 1012.5 |
| 20260504212350 | 74 | 291 | 5.0 | 11.0 | 0.00 | 0.00 | 0.00 | 46 | 1012.5 |
| 20260504211348 | 74 | 276 | 4.0 | 15.0 | 0.00 | 0.00 | 0.00 | 44 | 1012.9 |
| 20260504210347 | 74 | 287 | 3.0 | 15.0 | 0.00 | 0.00 | 0.00 | 46 | 1012.5 |
| 20260504205346 | 75 | 229 | 3.0 | 12.0 | 0.00 | 0.00 | 0.00 | 47 | 1012.5 |
| 20260504204345 | 74 | 275 | 4.0 | 12.0 | 0.00 | 0.00 | 0.00 | 49 | 1012.5 |
| 20260504203345 | 74 | 252 | 5.0 | 12.0 | 0.00 | 0.00 | 0.00 | 49 | 1012.9 |
| 20260504202344 | 74 | 351 | 2.0 | 11.0 | 0.00 | 0.00 | 0.00 | 49 | 1012.9 |
| 20260504201343 | 73 | 268 | 3.0 | 13.0 | 0.00 | 0.00 | 0.00 | 51 | 1012.5 |
| 20260504200311 | 73 | 268 | 4.0 | 13.0 | 0.00 | 0.00 | 0.00 | 50 | 1012.9 |
| 20260504195310 | 74 | 286 | 5.0 | 10.0 | 0.00 | 0.00 | 0.00 | 50 | 1012.9 |
| 20260504194308 | 73 | 279 | 3.0 | 11.0 | 0.00 | 0.00 | 0.00 | 50 | 1012.9 |
| 20260504193308 | 73 | 280 | 4.0 | 11.0 | 0.00 | 0.00 | 0.00 | 50 | 1012.9 |
| 20260504192307 | 73 | 281 | 3.0 | 9.0 | 0.00 | 0.00 | 0.00 | 51 | 1012.5 |
| 20260504191234 | 72 | 266 | 2.0 | 10.0 | 0.00 | 0.00 | 0.00 | 53 | 1012.9 |
| 20260504190234 | 72 | 311 | 2.0 | 10.0 | 0.00 | 0.00 | 0.00 | 52 | 1012.9 |
| 20260504185233 | 72 | 288 | 6.0 | 10.0 | 0.00 | 0.00 | 0.00 | 52 | 1012.9 |
| 20260504184231 | 71 | 277 | 4.0 | 10.0 | 0.00 | 0.00 | 0.00 | 54 | 1012.9 |
| 20260504183230 | 71 | 297 | 4.0 | 14.0 | 0.00 | 0.00 | 0.00 | 54 | 1012.9 |
| 20260504182229 | 71 | 281 | 4.0 | 14.0 | 0.00 | 0.00 | 0.00 | 54 | 1012.9 |
| 20260504181228 | 71 | 284 | 4.0 | 11.0 | 0.00 | 0.00 | 0.00 | 54 | 1012.9 |
| 20260504180156 | 70 | 252 | 6.0 | 14.0 | 0.00 | 0.00 | 0.00 | 55 | 1013.2 |
| 20260504175155 | 70 | 268 | 5.0 | 14.0 | 0.00 | 0.00 | 0.00 | 55 | 1012.9 |
| 20260504174123 | 70 | 287 | 6.0 | 11.0 | 0.00 | 0.00 | 0.00 | 55 | 1013.2 |
| 20260504173122 | 69 | 285 | 3.0 | 8.0 | 0.00 | 0.00 | 0.00 | 57 | 1013.2 |
| 20260504172121 | 68 | 292 | 4.0 | 9.0 | 0.00 | 0.00 | 0.00 | 57 | 1013.2 |
| 20260504171120 | 66 | 279 | 3.0 | 7.0 | 0.00 | 0.00 | 0.00 | 62 | 1013.2 |
| 20260504170118 | 65 | 203 | 1.0 | 5.0 | 0.00 | 0.00 | 0.00 | 63 | 1013.5 |
| 20260504160110 | 57 | 266 | 2.0 | 4.0 | 0.00 | 0.00 | 0.00 | 73 | 1014.2 |
| 20260504151105 | 53 | 102 | 1.0 | 2.0 | 0.00 | 0.00 | 0.00 | 80 | 1014.2 |
| 20260504150104 | 52 | 102 | 1.0 | 2.0 | 0.00 | 0.00 | 0.00 | 81 | 1014.2 |
| 20260504141059 | 48 | 102 | 1.0 | 1.0 | 0.00 | 0.00 | 0.00 | 88 | 1014.2 |
| 20260504130816 | 47 | 102 | 0.0 | 0.0 | 0.00 | 0.00 | 0.00 | 86 | 1013.5 |